TimeEDT,TemperatureF,Dew PointF,Humidity,Sea Level PressureIn,VisibilityMPH,Wind Direction,Wind SpeedMPH,Gust SpeedMPH,PrecipitationIn,Events,Conditions,WindDirDegrees,DateUTC
12:53 AM,64.0,48.0,56,30.04,10.0,SW,4.6,-,N/A,,Partly Cloudy,230,2013-04-09 04:53:00
1:53 AM,64.9,48.9,56,30.05,10.0,SW,4.6,-,N/A,,Mostly Cloudy,230,2013-04-09 05:53:00
2:53 AM,64.9,48.9,56,30.05,10.0,SSW,3.5,-,N/A,,Mostly Cloudy,200,2013-04-09 06:53:00
3:53 AM,64.0,48.9,58,30.05,10.0,Calm,Calm,-,N/A,,Overcast,0,2013-04-09 07:53:00
4:53 AM,63.0,48.0,58,30.05,10.0,SSW,3.5,-,N/A,,Mostly Cloudy,200,2013-04-09 08:53:00
5:53 AM,62.1,48.0,60,30.06,10.0,South,3.5,-,N/A,,Clear,190,2013-04-09 09:53:00
6:53 AM,62.1,48.0,60,30.08,10.0,SSW,3.5,-,N/A,,Overcast,200,2013-04-09 10:53:00
7:53 AM,63.0,48.0,58,30.10,10.0,SSW,3.5,-,N/A,,Overcast,200,2013-04-09 11:53:00
8:53 AM,64.0,48.9,58,30.12,10.0,Calm,Calm,-,N/A,,Overcast,0,2013-04-09 12:53:00
9:53 AM,68.0,48.9,50,30.12,10.0,Variable,3.5,-,N/A,,Mostly Cloudy,0,2013-04-09 13:53:00
10:53 AM,75.0,53.1,46,30.11,10.0,Variable,3.5,-,N/A,,Clear,0,2013-04-09 14:53:00
11:53 AM,75.0,52.0,44,30.11,10.0,Variable,6.9,17.3,N/A,,Partly Cloudy,0,2013-04-09 15:53:00
12:53 PM,75.9,51.1,42,30.09,10.0,Variable,5.8,-,N/A,,Partly Cloudy,0,2013-04-09 16:53:00
1:53 PM,78.1,52.0,40,30.07,10.0,Variable,5.8,18.4,N/A,,Partly Cloudy,0,2013-04-09 17:53:00
2:53 PM,82.0,52.0,35,30.04,10.0,SSW,8.1,25.3,N/A,,Partly Cloudy,210,2013-04-09 18:53:00
3:53 PM,81.0,50.0,34,30.02,10.0,Variable,5.8,23.0,N/A,,Clear,0,2013-04-09 19:53:00
4:53 PM,80.1,51.1,36,30.00,10.0,Variable,6.9,-,N/A,,Clear,0,2013-04-09 20:53:00
5:53 PM,79.0,48.9,35,29.99,10.0,South,6.9,21.9,N/A,,Clear,190,2013-04-09 21:53:00
6:53 PM,77.0,48.9,37,30.00,10.0,Variable,3.5,-,N/A,,Clear,0,2013-04-09 22:53:00
7:53 PM,75.0,48.9,40,30.01,10.0,Calm,Calm,-,N/A,,Clear,0,2013-04-09 23:53:00
8:53 PM,72.0,50.0,46,29.99,10.0,Variable,3.5,-,N/A,,Clear,0,2013-04-10 00:53:00
9:53 PM,73.0,48.9,42,30.01,10.0,Calm,Calm,-,N/A,,Clear,0,2013-04-10 01:53:00
10:53 PM,70.0,48.9,47,30.01,10.0,SW,3.5,-,N/A,,Clear,220,2013-04-10 02:53:00
11:53 PM,68.0,50.0,52,30.01,10.0,SW,4.6,-,N/A,,Clear,230,2013-04-10 03:53:00